TimeEDT,TemperatureF,Dew PointF,Humidity,Sea Level PressureIn,VisibilityMPH,Wind Direction,Wind SpeedMPH,Gust SpeedMPH,PrecipitationIn,Events,Conditions,WindDirDegrees,DateUTC
12:51 AM,53.1,36.0,52,29.97,-9999.0,WSW,9.2,18.4,N/A,,Unknown,250,2013-05-08 04:51:00
1:51 AM,51.1,36.0,56,29.96,-9999.0,SW,13.8,21.9,N/A,,Unknown,230,2013-05-08 05:51:00
2:51 AM,50.0,36.0,59,29.96,-9999.0,WSW,10.4,-,N/A,,Unknown,240,2013-05-08 06:51:00
3:51 AM,52.0,36.0,54,29.94,-9999.0,SW,9.2,-,N/A,,Unknown,230,2013-05-08 07:51:00
4:51 AM,46.0,36.0,68,29.96,-9999.0,Calm,Calm,-,N/A,,Unknown,0,2013-05-08 08:51:00
5:51 AM,43.0,35.1,74,29.98,-9999.0,Calm,Calm,-,N/A,,Unknown,0,2013-05-08 09:51:00
6:51 AM,42.1,34.0,73,29.99,-9999.0,WSW,4.6,-,N/A,,Unknown,240,2013-05-08 10:51:00
7:51 AM,46.0,37.0,71,29.99,-9999.0,Calm,Calm,-,N/A,,Unknown,0,2013-05-08 11:51:00
8:51 AM,51.1,39.0,63,29.99,-9999.0,Calm,Calm,-,N/A,,Unknown,0,2013-05-08 12:51:00
9:51 AM,50.0,37.9,63,30.00,-9999.0,East,3.5,-,N/A,,Unknown,100,2013-05-08 13:51:00
10:51 AM,48.0,39.0,71,30.02,-9999.0,Calm,Calm,-,N/A,,Unknown,0,2013-05-08 14:51:00
11:51 AM,60.1,39.9,47,30.00,-9999.0,Calm,Calm,-,N/A,,Unknown,0,2013-05-08 15:51:00
12:51 PM,57.0,39.0,51,30.01,-9999.0,East,3.5,-,N/A,,Unknown,80,2013-05-08 16:51:00
1:51 PM,51.1,39.0,63,30.02,-9999.0,Calm,Calm,-,N/A,,Unknown,0,2013-05-08 17:51:00
2:51 PM,52.0,41.0,66,30.01,-9999.0,Calm,Calm,-,N/A,,Unknown,0,2013-05-08 18:51:00
3:51 PM,50.0,39.0,66,30.02,-9999.0,ENE,3.5,-,N/A,,Unknown,70,2013-05-08 19:51:00
4:51 PM,53.1,39.9,61,30.00,-9999.0,Calm,Calm,-,N/A,,Unknown,0,2013-05-08 20:51:00
5:51 PM,51.1,39.9,66,30.02,-9999.0,Calm,Calm,-,N/A,,Unknown,0,2013-05-08 21:51:00
6:51 PM,53.1,39.9,61,30.02,-9999.0,Calm,Calm,-,N/A,,Unknown,0,2013-05-08 22:51:00
7:51 PM,52.0,39.9,63,30.04,-9999.0,North,6.9,-,N/A,,Unknown,10,2013-05-08 23:51:00
8:51 PM,50.0,39.9,68,30.04,-9999.0,Calm,Calm,-,N/A,,Unknown,0,2013-05-09 00:51:00
9:51 PM,50.0,41.0,71,30.04,-9999.0,Calm,Calm,-,N/A,,Unknown,0,2013-05-09 01:51:00
10:51 PM,48.0,39.0,71,30.05,-9999.0,Calm,Calm,-,N/A,,Unknown,0,2013-05-09 02:51:00
11:51 PM,51.1,41.0,68,30.05,-9999.0,Variable,3.5,-,N/A,,Unknown,0,2013-05-09 03:51:00